Powrót do katalogu

SL-12 DEB

LostHEO
NORAD 48539·DEBRIS·🇷🇺 Russia

Wystrzelony Sep 25, 2008 z Baikonur Cosmodrome

Loading…

Następne Przeloty (najbliższe 24 godziny)

TLE

NieaktualneSource: Space-Track

Epoka: Aug 14, 2021, 14:15 UTC

1 48539U 08046U   21226.59386961 -.00000997  00000-0 -13658-2 0  9999
2 48539  64.9066   5.4028 5920568 347.1580   2.6132  4.02320597 98142

Śledź SL-12 DEB w czasie rzeczywistym z AllMySat

Download on the App Store